TimeEST,TemperatureF,Dew PointF,Humidity,Sea Level PressureIn,VisibilityMPH,Wind Direction,Wind SpeedMPH,Gust SpeedMPH,PrecipitationIn,Events,Conditions,WindDirDegrees,DateUTC
12:56 AM,35.1,26.1,70,30.63,10.0,North,5.8,-,N/A,,Clear,360,2012-11-18 05:56:00
1:56 AM,36.0,26.1,67,30.63,10.0,North,5.8,-,N/A,,Clear,10,2012-11-18 06:56:00
2:56 AM,36.0,25.0,64,30.63,10.0,North,4.6,-,N/A,,Clear,10,2012-11-18 07:56:00
3:56 AM,34.0,25.0,70,30.64,10.0,Calm,Calm,-,N/A,,Clear,0,2012-11-18 08:56:00
4:56 AM,32.0,25.0,75,30.65,10.0,NNW,3.5,-,N/A,,Clear,340,2012-11-18 09:56:00
5:56 AM,34.0,27.0,75,30.66,10.0,NNE,5.8,-,N/A,,Clear,30,2012-11-18 10:56:00
6:56 AM,34.0,27.0,75,30.67,10.0,North,5.8,-,N/A,,Clear,360,2012-11-18 11:56:00
7:56 AM,37.9,28.0,68,30.67,10.0,NE,5.8,-,N/A,,Clear,40,2012-11-18 12:56:00
8:56 AM,41.0,28.9,62,30.68,10.0,NE,4.6,-,N/A,,Clear,50,2012-11-18 13:56:00
9:56 AM,44.1,30.9,60,30.68,10.0,East,9.2,-,N/A,,Clear,100,2012-11-18 14:56:00
10:56 AM,46.0,30.9,56,30.67,10.0,East,9.2,-,N/A,,Clear,100,2012-11-18 15:56:00
11:56 AM,46.9,30.9,54,30.65,10.0,East,6.9,-,N/A,,Clear,100,2012-11-18 16:56:00
12:56 PM,48.0,30.9,52,30.62,10.0,East,4.6,-,N/A,,Clear,80,2012-11-18 17:56:00
1:56 PM,46.9,32.0,56,30.62,10.0,SE,6.9,-,N/A,,Clear,130,2012-11-18 18:56:00
2:56 PM,45.0,34.0,65,30.62,10.0,SSE,8.1,-,N/A,,Clear,150,2012-11-18 19:56:00
3:56 PM,45.0,33.1,63,30.62,10.0,ESE,4.6,-,N/A,,Clear,110,2012-11-18 20:56:00
4:56 PM,43.0,33.1,68,30.61,10.0,Calm,Calm,-,N/A,,Clear,0,2012-11-18 21:56:00
5:56 PM,39.9,32.0,73,30.62,10.0,Calm,Calm,-,N/A,,Clear,0,2012-11-18 22:56:00
6:56 PM,41.0,32.0,70,30.62,10.0,Calm,Calm,-,N/A,,Clear,0,2012-11-18 23:56:00
7:56 PM,41.0,33.1,73,30.61,10.0,North,3.5,-,N/A,,Clear,10,2012-11-19 00:56:00
8:56 PM,41.0,30.9,67,30.61,10.0,NNE,3.5,-,N/A,,Clear,30,2012-11-19 01:56:00
9:56 PM,39.9,28.9,65,30.60,10.0,NE,4.6,-,N/A,,Clear,40,2012-11-19 02:56:00
10:56 PM,39.0,28.9,67,30.59,10.0,NE,5.8,-,N/A,,Clear,50,2012-11-19 03:56:00
11:56 PM,37.9,28.9,70,30.57,10.0,NE,9.2,-,N/A,,Clear,40,2012-11-19 04:56:00